sat.trackr.live / text

‹ back to catalog

STARLINK-34288

NORAD 64673 · 2025-139K

PAYLOAD ACTIVE UNKNOWN

§ Identity

Operator
Country
US
Launch date
2025-06-28
Launch site
AFETR
Launch vehicle
Mass (kg)
RCS (m²)

Purposes: comms

External: N2YO · Heavens-Above · Gunter

§ Orbital elements

Epoch: 2026-09-20T08:54:32.194080Z

Period
93.85 min
Inclination
53.1594°
Eccentricity
0.0002706
Mean motion
15.34414308 rev/d
Perigee alt
460.8 km
Apogee alt
464.5 km
Semi-major
6,840.8 km
B*
5.7453e-4
RAAN
298.3029°
Arg perigee
91.6761°
Mean anomaly
268.4552°
Rev number
7,015

§ Raw data

STARLINK-342881 64673U 25139K   26263.37120595  .00019094  00000+0  57453-3 0  99962 64673  53.1594 298.3029 0002706  91.6761 268.4552 15.34414308 70151

JSON: /api/v1/satellites/64673 · /tle

For live sub-satellite position, see the globe view (requires WebGL).

§ Visibility from observer

Set your observer location to see the next 7 days of passes ≥ 10°. The values pass through the URL so the page stays shareable.

No JS? Fill the form by hand. The geolocation button needs JavaScript.